一网星座-0226星 (ONEWEB-0226 )

导读 | 星芒AI

ONEWEB-0226 是 OneWeb 卫星星座计划中的一颗低轨通信卫星,主要用于提供全球范围的宽带互联网服务。该卫星于2023年发射,部署在约1200公里高度的近地轨道,采用先进通信技术,支持高数据传输速率和低延迟。OneWeb 项目旨在通过大规模卫星组网,为偏远和地面网络覆盖不足的地区提供稳定、高速的互联网接入,助力全球数字包容。ONEWEB-0226 是该计划的重要组成部分,体现了 OneWeb 在全球卫星通信领域的战略布局和技术实力。

基本信息
目录编号:
48793
目录名称:
ONEWEB-0226
国际标识:
2021-045AC
轨道中心:
EARTH
卫星名称:
一网星座-0226星
卫星全名:
一网星座-0226星 (ONEWEB-0226 )
卫星状态:
在轨 (已飞行1616 天)
发射日期:
2021-05-28 UTC
国别 :
英国 (GB)
星等 :
--
轨道信息
数据来源 国际轨道数据
星历时间: 2025-10-29T20:30:07+0800
17小时前
查看轨道信息
半长轴: 7579.906km
偏心率: 0.0001865
轨道倾角: 87.896°
近地点辐角 103.546°
升交点赤经 305.232°
平近点角 256.587°
近地点: 1200.357km
远地点: 1203.185km
周期: 109.460分钟
每日圈数: 13.155492
详细信息
平衡模式:
三轴稳定
覆盖范围:
全球
运营商:
一网卫星公司
运营商所在国:
英国
制造商(研发单位):
一网卫星公司
制造商所在国:
英国
使用方式:
暂无
卫星简介
OneWeb卫星网络由648颗重约125公斤的微型卫星组成,运行在1200公里的轨道上。 每颗卫星都能够提供至少每秒8千兆位的吞吐量,以使用其高吞吐量的Ku频段有效载荷为家庭和移动平台提供互联网接入。该卫星仍在工作。
2D轨道图
3D轨道图
轨道高度分析图
轨道倾角分析图
轨道综合分析图
查看轨道综合分析图